INTELSAT 10 (IS-10) 1 26766U 01019A 25293.62442894 -.00000127 00000+0 00000+0 0 9997 2 26766 8.5000 61.6828 0005304 199.1492 0.5751 0.99080031 43207 INTELSAT 902 (IS-902) 1 26900U 01039A 25293.32763697 -.00000277 00000+0 00000+0 0 9999 2 26900 5.5084 74.6994 0004245 131.8341 250.3787 1.00271011 88298 INTELSAT 904 (IS-904) 1 27380U 02007A 25293.75945626 -.00000217 00000+0 00000+0 0 9993 2 27380 6.3186 72.0438 0001813 93.7010 105.6607 1.00271418 49364 DIRECTV 5 (TEMPO 1) 1 27426U 02023A 25293.88667911 -.00000050 00000+0 00000+0 0 9999 2 27426 4.2632 78.2863 0003538 147.3807 13.0318 1.00272614 85724 INTELSAT 905 (IS-905) 1 27438U 02027A 25293.59578495 .00000101 00000+0 00000+0 0 9998 2 27438 6.1486 72.6729 0002412 139.5284 254.4088 1.00274132 48963 GALAXY 3C (G-3C) 1 27445U 02030A 25293.88962579 -.00000146 00000+0 00000+0 0 9992 2 27445 3.1267 81.0534 0001717 66.8862 107.0990 1.00272352 44091 INTELSAT 906 (IS-906) 1 27513U 02041A 25293.84984560 .00000021 00000+0 00000+0 0 9991 2 27513 5.1917 75.8589 0004578 165.1716 158.6263 1.00270894 84628 GALAXY 13 (HORIZONS-1) 1 27954U 03044A 25293.73605615 .00000137 00000+0 00000+0 0 9991 2 27954 0.7951 87.1546 0002244 120.8572 296.4398 1.00270230 44171 INTELSAT 10-02 1 28358U 04022A 25293.90827078 -.00000006 00000+0 00000+0 0 9991 2 28358 0.0230 111.9441 0000479 134.2175 109.4500 1.00272473 78153 XM-3 (RHYTHM) 1 28626U 05008A 25291.60821091 -.00000237 00000+0 00000+0 0 9994 2 28626 0.0390 81.2895 0003740 85.4323 354.1902 1.00533587 75648 DIRECTV 8 1 28659U 05019A 25293.88477244 .00000005 00000+0 00000+0 0 9993 2 28659 0.0153 258.9604 0003517 331.4234 358.6966 1.00272841 74673 GALAXY 28 (G-28) 1 28702U 05022A 25293.89083913 -.00000181 00000+0 00000+0 0 9999 2 28702 2.6794 81.8976 0001512 149.7852 29.9338 1.00270702 49571 GALAXY 16 (G-16) 1 29236U 06023A 25293.46067095 -.00000124 00000+0 00000+0 0 9997 2 29236 0.0216 173.0075 0002625 41.2044 241.8292 1.00273325 70565 DIRECTV 9S 1 29494U 06043A 25293.88841245 -.00000107 00000+0 00000+0 0 9999 2 29494 1.7996 83.8031 0003045 133.1755 31.2575 1.00271837 48983 GALAXY 17 (G-17) 1 31307U 07016B 25293.89161913 -.00000200 00000+0 00000+0 0 9998 2 31307 2.3625 82.9153 0006629 161.4779 21.2201 1.00272241 67404 DIRECTV 10 1 31862U 07032A 25293.88806579 -.00000099 00000+0 00000+0 0 9991 2 31862 0.0204 42.9742 0000878 193.8602 9.6939 1.00272708 43198 INTELSAT 11 (IS-11) 1 32253U 07044B 25293.92784596 -.00000060 00000+0 00000+0 0 9996 2 32253 2.9384 81.5912 0008661 137.9158 242.1805 0.99048665 66083 HORIZONS-2 1 32388U 07063B 25293.89387248 -.00000247 00000+0 00000+0 0 9992 2 32388 1.9809 83.5650 0003518 155.0587 38.9949 1.00272902 65419 DIRECTV 11 1 32729U 08013A 25293.88875912 -.00000121 00000+0 00000+0 0 9997 2 32729 0.0156 45.1217 0000287 67.0487 138.1976 1.00272213 43196 GALAXY 18 (G-18) 1 32951U 08024A 25293.67001582 .00000029 00000+0 00000+0 0 9993 2 32951 0.0178 257.3992 0003134 316.0592 294.1286 1.00271398 43451 INTELSAT 25 (IS-25) 1 33153U 08034A 25293.90220409 -.00000217 00000+0 00000+0 0 9996 2 33153 2.0876 83.2605 0004413 147.6645 91.9967 1.00272931 63295 GALAXY 19 (G-19) 1 33376U 08045A 25293.53243131 -.00000136 00000+0 00000+0 0 9991 2 33376 0.0150 250.7894 0002729 317.5834 275.5652 1.00272849 62504 FM-5 1 35493U 09034A 25293.89135913 -.00000196 00000+0 00000+0 0 9995 2 35493 0.0247 263.1383 0000912 218.8923 142.3323 1.00272890 44241 INTELSAT 14 (IS-14) 1 36097U 09064A 25293.32867698 -.00000271 00000+0 00000+0 0 9993 2 36097 0.0491 60.9874 0002366 148.1110 253.3022 1.00273345 58205 INTELSAT 15 (IS-15) 1 36106U 09067A 25293.92405755 .00000000 00000+0 00000+0 0 9994 2 36106 0.0202 245.1077 0002248 332.1432 230.1743 1.00269479 38821 DIRECTV 12 1 36131U 09075A 25293.88806579 -.00000099 00000+0 00000+0 0 9994 2 36131 0.0230 6.0595 0000473 234.6139 5.9157 1.00272359 44158 INTELSAT 16 (IS-16) 1 36397U 10006A 25293.89335248 -.00000240 00000+0 00000+0 0 9993 2 36397 0.0178 268.1193 0002550 316.5218 50.3833 1.00271279 57254 XM-5 1 37185U 10053A 25293.88563911 -.00000019 00000+0 00000+0 0 9994 2 37185 0.0617 268.5751 0000617 203.6215 121.0556 1.00272113 55082 INTELSAT 17 (IS-17) 1 37238U 10065B 25293.97139590 .00000003 00000+0 00000+0 0 9990 2 37238 0.0209 231.1096 0002481 344.1440 230.1496 1.00273889 50843 INTELSAT 28 (IS-28) 1 37392U 11016A 25293.90220409 -.00000219 00000+0 00000+0 0 9991 2 37392 1.1839 85.6807 0004010 131.4800 105.5623 1.00271485 50885 INTELSAT 18 (IS-18) 1 37834U 11056A 25293.73007612 .00000057 00000+0 00000+0 0 9995 2 37834 0.0184 262.8353 0001768 305.9794 263.4778 1.00271282 51419 INTELSAT 22 (IS-22) 1 38098U 12011A 25293.87891911 -.00000054 00000+0 00000+0 0 9996 2 38098 0.0110 248.8304 0001779 321.1457 208.1496 1.00271977 4781 INTELSAT 19 (IS-19) 1 38356U 12030A 25293.87003904 -.00000051 00000+0 00000+0 0 9998 2 38356 0.0169 267.5035 0003036 301.3224 299.9855 1.00274730 48056 INTELSAT 20 (IS-20) 1 38740U 12043A 25293.87891911 -.00000020 00000+0 00000+0 0 9998 2 38740 0.0211 137.7809 0001867 46.6112 230.1050 1.00271290 48347 INTELSAT 21 (IS-21) 1 38749U 12045A 25293.99004080 .00000000 00000+0 00000+0 0 9992 2 38749 0.0129 223.7113 0002408 356.0003 108.3901 1.00269622 48120 INTELSAT 23 (IS-23) 1 38867U 12057A 25293.46985766 -.00000282 00000+0 00000+0 0 9990 2 38867 0.0137 236.9189 0002161 355.6929 272.7624 1.00271951 47559 FM-6 1 39360U 13058A 25293.52870462 -.00000014 00000+0 00000+0 0 9997 2 39360 0.0201 138.5320 0002629 39.7951 285.1130 1.00272810 43672 INTELSAT 30 (IS-30) 1 40271U 14062A 25293.46153762 .00000000 00000+0 00000+0 0 9990 2 40271 0.0112 252.1821 0001560 178.2800 29.8015 1.00272247 4384 DIRECTV 14 1 40333U 14078B 25293.88875912 -.00000121 00000+0 00000+0 0 9995 2 40333 0.0201 242.2840 0000509 298.1760 69.8744 1.00272117 39648 DIRECTV 15 1 40663U 15026A 25293.88806579 -.00000099 00000+0 00000+0 0 9992 2 40663 0.0501 70.0032 0000243 353.3748 183.0934 1.00273809 38066 SKY MEXICO-1 1 40664U 15026B 25293.89283248 .00000000 00000+0 00000+0 0 9997 2 40664 0.0173 243.2011 0001953 323.8468 65.2013 1.00269649 38058 INTELSAT 34 (IS-34) 1 40874U 15039A 25293.39801064 -.00000283 00000+0 00000+0 0 9995 2 40874 0.0222 267.0176 0000531 154.7088 55.1760 1.00272657 37220 INTELSAT 31 (IS-31) 1 41581U 16035A 25293.53286464 -.00000148 00000+0 00000+0 0 9995 2 41581 0.0161 240.7689 0001479 347.1949 258.0539 1.00272522 34283 INTELSAT 36 (IS-36) 1 41747U 16053A 25293.42253743 -.00000023 00000+0 00000+0 0 9993 2 41747 0.0137 300.7597 0001736 49.7134 259.2903 1.00274309 33543 INTELSAT 32E (IS-32E) 1 41945U 17007B 25293.40043733 -.00000266 00000+0 00000+0 0 9996 2 41945 0.0264 107.7780 0000618 266.9392 115.3923 1.00272584 31826 INTELSAT 35E (IS-35E) 1 42818U 17041A 25293.90168409 -.00000233 00000+0 00000+0 0 9991 2 42818 0.0172 249.4759 0002731 338.7380 91.5196 1.00272292 30414 INTELSAT 37E (IS-37E) 1 42950U 17059A 25293.93031082 .00000000 00000+0 00000+0 0 9997 2 42950 0.0171 234.3928 0002765 333.0569 139.0955 1.00270318 29668 AZERSPACE 2 (IS-38) 1 43632U 18074A 25293.91737081 .00000141 00000+0 00000+0 0 9999 2 43632 0.0206 247.5365 0001301 314.4119 203.0547 1.00271866 26042 HORIZONS-3E 1 43633U 18074B 25293.72790944 .00000000 00000+0 00000+0 0 9990 2 43633 0.0176 230.5722 0001284 68.1642 161.7186 1.00270476 25945 AT&T T-16 1 44333U 19034A 25293.46032428 -.00000113 00000+0 00000+0 0 9998 2 44333 0.0427 67.6321 0000347 41.5071 344.9097 1.00271164 23226 INTELSAT 39 (IS-39) 1 44476U 19049B 25293.52792836 .00000036 00000+0 00000+0 0 9998 2 44476 0.0181 247.9571 0000411 149.3809 243.9157 1.00272401 22723 GALAXY 30 (G-30) 1 46114U 20056C 25293.66958249 .00000000 00000+0 00000+0 0 9997 2 46114 0.0166 233.8203 0002496 337.2619 294.3371 1.00271110 18892 GALAXY 33 (G-33) 1 54026U 22128A 25293.66802248 .00000000 00000+0 00000+0 0 9997 2 54026 0.0169 243.4492 0001596 316.3284 297.0780 1.00271647 11341 GALAXY 34 (G-34) 1 54027U 22128B 25293.09796926 .00000000 00000+0 00000+0 0 9990 2 54027 0.0173 210.4627 0001506 2.0396 82.5674 1.00270580 11507 GALAXY 31 (G-31) 1 54243U 22153A 25293.67044917 .00000017 00000+0 00000+0 0 9996 2 54243 0.0108 215.4372 0001547 9.2553 285.0678 1.00272621 4735 GALAXY 32 (G-32) 1 54244U 22153B 25292.96276866 -.00000174 00000+0 00000+0 0 9993 2 54244 0.0122 279.5975 0000994 9.3657 355.3313 1.00272718 10734 GALAXY 35 (G-35) 1 54741U 22170A 25293.53321131 -.00000159 00000+0 00000+0 0 9997 2 54741 0.0077 218.0303 0001969 352.2561 277.8246 1.00272420 10491 GALAXY 36 (G-36) 1 54742U 22170B 25293.60540500 -.00000182 00000+0 00000+0 0 9995 2 54742 0.0193 238.5166 0001231 276.0961 3.6625 1.00273216 10371 GALAXY 37 (G-37) 1 57493U 23112A 25293.66923582 .00000051 00000+0 00000+0 0 9993 2 57493 0.0209 272.3239 0002035 305.8660 285.1319 1.00274436 8146